TimePST,TemperatureF,Dew PointF,Humidity,Sea Level PressureIn,VisibilityMPH,Wind Direction,Wind SpeedMPH,Gust SpeedMPH,PrecipitationIn,Events,Conditions,WindDirDegrees,DateUTC
12:53 AM,14.0,10.9,88,30.69,10.0,East,3.5,-,N/A,,Clear,90,2013-11-23 08:53:00
1:53 AM,10.9,7.0,84,30.69,10.0,SE,3.5,-,N/A,,Clear,140,2013-11-23 09:53:00
2:53 AM,12.9,10.0,88,30.68,10.0,South,4.6,-,N/A,,Clear,180,2013-11-23 10:53:00
3:53 AM,12.9,9.0,84,30.67,10.0,South,3.5,-,N/A,,Clear,180,2013-11-23 11:53:00
4:53 AM,10.0,6.1,84,30.67,10.0,SSE,3.5,-,N/A,,Clear,150,2013-11-23 12:53:00
5:53 AM,12.9,10.0,88,30.67,10.0,SSE,3.5,-,N/A,,Clear,160,2013-11-23 13:53:00
6:53 AM,12.0,8.1,84,30.67,10.0,South,4.6,-,N/A,,Clear,170,2013-11-23 14:53:00
7:53 AM,12.9,10.0,88,30.67,9.0,Calm,Calm,-,N/A,,Clear,0,2013-11-23 15:53:00
8:53 AM,21.9,16.0,78,30.66,10.0,Calm,Calm,-,N/A,,Clear,0,2013-11-23 16:53:00
9:53 AM,26.1,17.1,69,30.64,10.0,Calm,Calm,-,N/A,,Clear,0,2013-11-23 17:53:00
10:53 AM,30.0,19.0,64,30.62,10.0,Variable,3.5,-,N/A,,Clear,0,2013-11-23 18:53:00
11:53 AM,32.0,19.0,59,30.60,10.0,NNW,3.5,-,N/A,,Clear,330,2013-11-23 19:53:00
12:53 PM,34.0,18.0,52,30.56,10.0,Calm,Calm,-,N/A,,Clear,0,2013-11-23 20:53:00
1:53 PM,36.0,17.1,46,30.53,10.0,Variable,3.5,-,N/A,,Clear,0,2013-11-23 21:53:00
2:53 PM,36.0,16.0,44,30.51,10.0,Calm,Calm,-,N/A,,Clear,0,2013-11-23 22:53:00
3:53 PM,35.1,16.0,46,30.50,10.0,Calm,Calm,-,N/A,,Clear,0,2013-11-23 23:53:00
4:53 PM,28.0,15.1,58,30.48,10.0,NE,4.6,-,N/A,,Clear,50,2013-11-24 00:53:00
5:53 PM,27.0,18.0,69,30.47,10.0,NNE,6.9,-,N/A,,Clear,30,2013-11-24 01:53:00
6:53 PM,21.9,16.0,78,30.46,10.0,SE,4.6,-,N/A,,Clear,140,2013-11-24 02:53:00
7:53 PM,19.9,12.9,74,30.45,10.0,South,5.8,-,N/A,,Clear,170,2013-11-24 03:53:00
8:53 PM,17.1,10.9,77,30.45,10.0,South,3.5,-,N/A,,Clear,190,2013-11-24 04:53:00
9:53 PM,16.0,10.9,81,30.45,10.0,SSE,4.6,-,N/A,,Clear,150,2013-11-24 05:53:00
10:53 PM,14.0,10.0,84,30.44,8.0,SSE,3.5,-,N/A,,Clear,160,2013-11-24 06:53:00
11:53 PM,15.1,10.0,80,30.43,10.0,SE,3.5,-,N/A,,Clear,140,2013-11-24 07:53:00